DW9210 Weather Reports


time (UTC)temp
C
wind
direction
speed
KPH
gust
KPH
rain 1hr
cm
rain 24hr
cm
rain mn
cm
humidity
%
barometer
mb
20260905175003 31 237 4.8 8.0 0.00 0.76 0.76 60 1011.3
20260905174524 31 225 3.2 9.7 0.00 0.76 0.76 60 1011.4
20260905174003 31 204 3.2 9.7 0.00 0.76 0.76 61 1011.5
20260905173503 31 200 3.2 9.7 0.00 0.76 0.76 57 1011.5
20260905173003 31 189 1.6 8.0 0.00 0.76 0.76 60 1011.5
20260905172524 31 178 3.2 8.0 0.00 0.76 0.76 57 1011.5
20260905172003 31 166 3.2 9.7 0.00 0.76 0.76 59 1011.7
20260905171503 31 169 3.2 6.4 0.00 0.76 0.76 58 1011.8
20260905171003 31 182 3.2 8.0 0.00 0.76 0.76 63 1011.9
20260905170503 31 181 3.2 8.0 0.00 0.76 0.76 59 1012.0
20260905170003 30 208 3.2 6.4 0.00 0.76 0.76 57 1012.0
20260905165503 30 211 3.2 11.3 0.00 0.76 0.76 61 1012.0
20260905165024 30 182 3.2 11.3 0.00 0.76 0.76 63 1011.9
20260905164503 30 166 3.2 9.7 0.00 0.76 0.76 65 1011.8
20260905164003 30 154 4.8 11.3 0.00 0.76 0.76 64 1011.6
20260905163503 30 145 4.8 11.3 0.00 0.76 0.76 64 1011.6
20260905163024 30 163 4.8 11.3 0.00 0.76 0.76 63 1011.6
20260905162524 30 176 3.2 8.0 0.00 0.76 0.76 63 1011.7
20260905162003 30 162 3.2 8.0 0.00 0.76 0.76 64 1011.7
20260905161503 29 153 4.8 12.9 0.00 0.76 0.76 67 1011.6
20260905161003 29 155 3.2 12.9 0.00 0.76 0.76 64 1011.9
20260905160503 29 148 4.8 14.5 0.00 0.76 0.76 68 1011.9
20260905160003 28 148 4.8 14.5 0.00 0.76 0.76 62 1011.9
20260905155503 28 148 4.8 11.3 0.00 0.76 0.76 64 1012.0
20260905155024 28 140 6.4 11.3 0.00 0.76 0.76 66 1011.9
20260905154503 28 139 6.4 11.3 0.00 0.76 0.76 65 1012.0
20260905154003 28 140 4.8 12.9 0.00 0.76 0.76 64 1012.2
20260905153524 28 137 4.8 12.9 0.00 0.76 0.76 69 1012.1
20260905153003 28 135 4.8 12.9 0.00 0.76 0.76 71 1012.2
20260905152503 27 135 4.8 12.9 0.00 0.76 0.76 71 1012.4
20260905152024 27 133 6.4 16.1 0.00 0.76 0.76 72 1012.3
20260905151524 27 136 6.4 16.1 0.00 0.76 0.76 72 1012.3
20260905151003 27 141 4.8 14.5 0.00 0.76 0.76 70 1012.3
20260905150503 26 137 8.0 17.7 0.00 0.76 0.76 74 1012.3
20260905150003 26 137 8.0 17.7 0.00 0.76 0.76 74 1012.3
20260905145503 26 139 8.0 16.1 0.00 0.76 0.76 75 1012.3
20260905145024 26 141 8.0 16.1 0.00 0.76 0.76 76 1012.4
20260905144524 26 140 8.0 14.5 0.00 0.76 0.76 77 1012.4
20260905144003 26 137 8.0 16.1 0.00 0.76 0.76 78 1012.4
20260905143503 25 136 6.4 16.1 0.00 0.76 0.76 77 1012.6
20260905143003 25 134 6.4 16.1 0.00 0.76 0.76 78 1012.7
20260905142503 25 134 8.0 16.1 0.00 0.76 0.76 79 1012.7
20260905142003 25 132 6.4 12.9 0.00 0.76 0.76 78 1012.6
20260905141503 25 129 4.8 11.3 0.00 0.76 0.76 82 1012.7
20260905141024 24 128 4.8 12.9 0.00 0.76 0.76 80 1012.7
20260905140503 24 124 6.4 12.9 0.00 0.76 0.76 81 1012.7
20260905140004 23 112 8.0 16.1 0.00 0.76 0.76 83 1012.8
20260905135524 23 102 8.0 17.7 0.00 0.76 0.76 83 1012.8
20260905135003 23 99 6.4 17.7 0.00 0.76 0.76 86 1012.9
20260905134503 22 103 4.8 16.1 0.00 0.76 0.76 87 1013.1
20260905134003 22 97 6.4 14.5 0.00 0.76 0.76 86 1013.2
20260905133503 22 88 4.8 14.5 0.00 0.76 0.76 85 1013.2
20260905133003 22 101 4.8 12.9 0.00 0.76 0.76 86 1013.3
20260905132503 22 116 4.8 16.1 0.00 0.76 0.76 85 1013.3
20260905132003 22 112 8.0 16.1 0.00 0.76 0.76 85 1013.4
20260905131524 22 103 11.3 24.1 0.03 0.76 0.76 86 1013.4
20260905131003 21 98 11.3 24.1 0.03 0.76 0.76 87 1013.5
20260905130503 21 95 11.3 24.1 0.05 0.76 0.76 89 1014.0
20260905130003 21 89 12.9 25.7 0.05 0.76 0.76 89 1014.0
20260905125503 21 87 12.9 29.0 0.05 0.76 0.76 90 1014.1
20260905125003 21 84 12.9 29.0 0.05 0.76 0.76 90 1014.2
20260905124503 21 72 12.9 22.5 0.05 0.76 0.76 91 1014.1
20260905124003 21 81 16.1 24.1 0.05 0.76 0.76 92 1014.1
20260905123503 21 93 17.7 29.0 0.05 0.76 0.76 92 1014.1
20260905123003 22 93 17.7 29.0 0.08 0.76 0.76 92 1014.1
20260905122503 22 96 17.7 29.0 0.08 0.76 0.76 91 1014.4
20260905122003 22 90 14.5 27.4 0.10 0.76 0.76 92 1014.6
20260905121503 22 67 9.7 25.7 0.08 0.74 0.74 91 1014.7
20260905121003 22 356 8.0 20.9 0.15 0.74 0.74 91 1015.2
20260905120503 22 348 9.7 25.7 0.20 0.71 0.71 91 1015.1
20260905120003 22 340 9.7 25.7 0.36 0.71 0.71 93 1015.5
20260905115503 22 303 8.0 19.3 0.56 0.71 0.71 94 1015.0
20260905115003 22 258 4.8 12.9 0.69 0.71 0.71 93 1013.2
20260905114503 22 240 4.8 12.9 0.71 0.71 0.71 93 1012.7
20260905114024 22 250 6.4 16.1 0.71 0.71 0.71 92 1012.5
20260905113524 22 254 8.0 17.7 0.71 0.71 0.71 91 1012.7
20260905113003 22 257 8.0 19.3 0.69 0.69 0.69 91 1012.7
20260905112503 22 257 8.0 19.3 0.69 0.69 0.69 91 1012.5
20260905112024 22 252 6.4 22.5 0.66 0.66 0.66 91 1012.2
20260905111503 23 253 8.0 22.5 0.66 0.66 0.66 92 1012.4
20260905111003 23 269 8.0 17.7 0.56 0.56 0.56 94 1012.7
20260905110503 23 273 8.0 16.1 0.51 0.51 0.51 94 1012.8
20260905110003 23 279 11.3 29.0 0.36 0.36 0.33 93 1012.4
20260905105503 23 281 16.1 30.6 0.15 0.15 0.15 92 1012.3
20260905105024 23 274 20.9 45.1 0.03 0.03 0.03 92 1012.1
20260905104503 23 269 17.7 45.1 0.00 0.00 0.00 95 1012.2
20260905104003 22 271 6.4 30.6 0.00 0.00 0.00 96 1011.8
20260905103503 22 283 1.6 4.8 0.00 0.00 0.00 96 1010.9
20260905103003 22 279 1.6 4.8 0.00 0.00 0.00 97 1010.9
20260905102503 22 251 1.6 8.0 0.00 0.00 0.00 97 1010.9
20260905102003 22 244 3.2 14.5 0.00 0.00 0.00 97 1010.6
20260905101503 22 258 1.6 14.5 0.00 0.00 0.00 97 1010.8
20260905101003 21 27 0.0 1.6 0.00 0.00 0.00 97 1011.1
20260905100503 21 27 0.0 1.6 0.00 0.00 0.00 96 1011.0
20260905100003 21 0 0.0 0.0 0.00 0.00 0.00 97 1011.1
20260905095503 21 0 0.0 0.0 0.00 0.00 0.00 97 1011.0
20260905095003 21 0 0.0 0.0 0.00 0.00 0.00 97 1011.2
20260905094503 21 0 0.0 0.0 0.00 0.00 0.00 96 1011.1
20260905094024 21 0 0.0 0.0 0.00 0.00 0.00 96 1011.1
20260905093503 21 0 0.0 0.0 0.00 0.00 0.00 96 1011.0
20260905093003 21 0 0.0 0.0 0.00 0.00 0.00 96 1011.0
20260905092503 21 0 0.0 0.0 0.00 0.00 0.00 97 1010.9
20260905092003 21 0 0.0 0.0 0.00 0.00 0.00 97 1011.0
20260905091524 21 0 0.0 0.0 0.00 0.00 0.00 96 1011.0
20260905091003 21 0 0.0 0.0 0.00 0.00 0.00 96 1011.0
20260905090503 21 0 0.0 0.0 0.00 0.00 0.00 96 1011.0
20260905090024 21 0 0.0 0.0 0.00 0.00 0.00 96 1011.0
20260905085503 21 0 0.0 0.0 0.00 0.00 0.00 96 1011.1
20260905085003 21 0 0.0 0.0 0.00 0.00 0.00 96 1011.0
20260905084503 21 27 0.0 1.6 0.00 0.00 0.00 96 1010.9
20260905084003 21 27 0.0 1.6 0.00 0.00 0.00 96 1010.8
20260905083524 21 0 0.0 0.0 0.00 0.00 0.00 96 1010.8
20260905083024 21 27 0.0 1.6 0.00 0.00 0.00 96 1010.8
20260905082503 21 27 0.0 1.6 0.00 0.00 0.00 96 1010.8
20260905082003 21 27 0.0 1.6 0.00 0.00 0.00 96 1010.8
20260905081503 21 0 0.0 0.0 0.00 0.00 0.00 96 1010.7
20260905081024 21 0 0.0 0.0 0.00 0.00 0.00 96 1010.6
20260905080503 21 0 0.0 0.0 0.00 0.00 0.00 96 1010.6
20260905080003 21 0 0.0 0.0 0.00 0.00 0.00 95 1010.4
20260905075503 21 0 0.0 0.0 0.00 0.00 0.00 95 1010.5
20260905075003 21 0 0.0 0.0 0.00 0.00 0.00 95 1010.6
20260905074524 22 0 0.0 0.0 0.00 0.00 0.00 96 1010.6
20260905074003 22 0 0.0 0.0 0.00 0.00 0.00 95 1010.7
20260905073503 22 0 0.0 0.0 0.00 0.00 0.00 95 1010.7
20260905073003 22 0 0.0 0.0 0.00 0.00 0.00 95 1010.8
20260905072524 22 0 0.0 0.0 0.00 0.00 0.00 96 1010.9
20260905072003 22 0 0.0 0.0 0.00 0.00 0.00 95 1011.0
20260905071503 22 27 0.0 1.6 0.00 0.00 0.00 96 1011.1
20260905071003 22 27 0.0 1.6 0.00 0.00 0.00 96 1011.0
20260905070503 22 27 0.0 1.6 0.00 0.00 0.00 95 1011.1
20260905070003 22 27 0.0 1.6 0.00 0.00 0.00 95 1011.2
20260905065503 22 0 0.0 0.0 0.00 0.00 0.00 95 1011.2
20260905065003 22 0 0.0 0.0 0.00 0.00 0.00 95 1011.3
20260905064503 22 0 0.0 0.0 0.00 0.00 0.00 95 1011.4
20260905064003 22 0 0.0 0.0 0.00 0.00 0.00 95 1011.5
20260905063503 22 0 0.0 0.0 0.00 0.00 0.00 95 1011.5
20260905063003 22 0 0.0 0.0 0.00 0.00 0.00 95 1011.6
20260905062503 22 0 0.0 0.0 0.00 0.00 0.00 95 1011.6
20260905062003 22 0 0.0 0.0 0.00 0.00 0.00 95 1011.7
20260905061503 22 0 0.0 0.0 0.00 0.00 0.00 95 1011.7
20260905061003 22 27 0.0 1.6 0.00 0.00 0.00 95 1011.7
20260905060503 22 27 0.0 1.6 0.00 0.00 0.00 95 1011.8
20260905060003 22 0 0.0 0.0 0.00 0.00 0.00 94 1011.9
20260905055503 22 0 0.0 0.0 0.00 0.00 0.00 94 1012.0
20260905055003 22 0 0.0 0.0 0.00 0.00 0.00 94 1012.1
20260905054503 22 0 0.0 0.0 0.00 0.00 0.00 94 1012.1
20260905054003 22 0 0.0 0.0 0.00 0.00 0.00 94 1012.2
20260905053503 22 27 0.0 1.6 0.00 0.00 0.00 94 1012.1
20260905053003 22 27 0.0 1.6 0.00 0.00 0.00 94 1012.2
20260905052503 22 0 0.0 0.0 0.00 0.00 0.00 94 1012.2
20260905052003 22 0 0.0 0.0 0.00 0.00 0.00 94 1012.2
20260905051524 22 0 0.0 0.0 0.00 0.00 0.00 94 1012.2
20260905051003 22 27 0.0 1.6 0.00 0.00 0.00 93 1012.2
20260905050503 22 27 0.0 1.6 0.00 0.00 0.00 94 1012.3
20260905050003 22 27 0.0 1.6 0.00 0.00 0.00 94 1012.3
20260905045503 22 27 0.0 1.6 0.00 0.00 0.00 94 1012.3
20260905045003 22 0 0.0 0.0 0.00 0.00 0.00 93 1012.3
20260905044503 23 0 0.0 0.0 0.00 0.00 0.00 93 1012.3
20260905044024 23 0 0.0 0.0 0.00 0.00 0.00 93 1012.3
20260905043524 23 0 0.0 0.0 0.00 0.00 0.00 93 1012.3
20260905043003 23 0 0.0 0.0 0.00 0.00 0.00 93 1012.3
20260905042503 23 0 0.0 0.0 0.00 0.00 0.00 93 1012.3
20260905042003 23 0 0.0 0.0 0.00 0.00 0.00 92 1012.3
20260905041503 23 0 0.0 0.0 0.00 0.00 0.00 92 1012.3
20260905041003 23 0 0.0 0.0 0.00 0.00 0.00 92 1012.3
20260905040503 23 0 0.0 0.0 0.00 0.00 0.00 92 1012.2
20260905040003 23 0 0.0 0.0 0.00 0.00 0.00 91 1012.2
20260905035503 23 0 0.0 0.0 0.00 0.00 0.00 91 1012.2
20260905035003 23 0 0.0 0.0 0.00 0.00 0.00 90 1012.2
20260905034503 23 0 0.0 0.0 0.00 0.00 0.00 90 1012.2
20260905034003 23 0 0.0 0.0 0.00 0.00 0.00 90 1012.2
20260905033503 23 0 0.0 0.0 0.00 0.00 0.00 89 1012.2
20260905033003 24 27 0.0 3.2 0.00 0.00 0.00 89 1012.2
20260905032524 24 27 0.0 3.2 0.00 0.00 0.00 89 1012.2
20260905032003 24 27 0.0 1.6 0.00 0.00 0.00 88 1012.3
20260905031503 24 0 0.0 0.0 0.00 0.00 0.00 88 1012.3
20260905031003 25 27 0.0 1.6 0.00 0.00 0.00 87 1012.3
20260905030503 25 27 0.0 3.2 0.00 0.00 0.00 86 1012.3
20260905030003 25 56 0.0 3.2 0.00 0.00 0.00 86 1012.3
20260905025503 25 94 0.0 3.2 0.00 0.00 0.00 85 1012.4
20260905025024 25 98 0.0 1.6 0.00 0.00 0.00 84 1012.3
20260905024503 25 98 0.0 1.6 0.00 0.00 0.00 84 1012.3
20260905024003 25 98 0.0 1.6 0.00 0.00 0.00 83 1012.2
20260905023503 26 96 0.0 3.2 0.00 0.00 0.00 82 1012.2
20260905023024 26 87 0.0 3.2 0.00 0.00 0.00 82 1012.2
20260905022503 26 77 1.6 3.2 0.00 0.00 0.00 80 1012.2
20260905022003 26 77 1.6 4.8 0.00 0.00 0.00 80 1012.2
20260905021503 26 90 3.2 6.4 0.00 0.00 0.00 80 1012.2
20260905021003 26 90 3.2 6.4 0.00 0.00 0.00 80 1012.2
20260905020503 26 71 3.2 8.0 0.00 0.00 0.00 81 1012.2
20260905020003 26 62 4.8 9.7 0.00 0.00 0.00 81 1012.1
20260905015503 26 59 4.8 9.7 0.00 0.00 0.00 81 1012.1
20260905015003 26 44 3.2 8.0 0.00 0.00 0.00 82 1012.1
20260905014503 26 34 3.2 6.4 0.00 0.00 0.00 82 1012.0
20260905014003 26 44 3.2 6.4 0.00 0.00 0.00 81 1012.0
20260905013503 26 36 3.2 6.4 0.00 0.00 0.00 82 1011.9
20260905013024 26 22 1.6 4.8 0.00 0.00 0.00 82 1011.8
20260905012524 26 12 1.6 4.8 0.00 0.00 0.00 83 1011.8
20260905012003 26 15 1.6 8.0 0.00 0.00 0.00 84 1011.8
20260905011524 26 35 3.2 8.0 0.00 0.00 0.00 83 1011.7
20260905011003 26 50 3.2 9.7 0.00 0.00 0.00 83 1011.6
20260905010524 26 49 4.8 11.3 0.00 0.00 0.00 84 1011.5
20260905010003 26 46 1.6 11.3 0.00 0.00 0.00 85 1011.5
20260905005503 27 0 0.0 0.0 0.00 0.00 0.00 84 1011.4
20260905005003 27 0 0.0 0.0 0.00 0.00 0.00 82 1011.3
20260905004524 27 0 0.0 0.0 0.00 0.00 0.00 83 1011.2
20260905004003 27 161 0.0 1.6 0.00 0.00 0.00 82 1011.1
20260905003503 27 162 0.0 1.6 0.00 0.00 0.00 82 1011.1
20260905003003 27 165 0.0 1.6 0.00 0.00 0.00 82 1011.0
20260905002503 28 256 0.0 3.2 0.00 0.00 0.00 79 1011.0
20260905002003 28 245 1.6 3.2 0.00 0.00 0.00 78 1010.8
20260905001503 28 235 1.6 3.2 0.00 0.00 0.00 76 1010.8
20260905001003 29 212 0.0 1.6 0.00 0.00 0.00 76 1010.8
20260905000503 29 213 0.0 3.2 0.00 0.00 0.00 75 1010.7
20260905000003 30 213 0.0 3.2 0.00 0.00 0.00 75 1010.6
20260904235503 30 213 0.0 3.2 0.00 0.00 0.00 72 1010.7
20260904235003 31 213 0.0 1.6 0.00 0.00 0.00 72 1010.7
20260904234503 31 213 0.0 1.6 0.00 0.00 0.00 70 1010.7
20260904234003 31 213 0.0 3.2 0.00 0.00 0.00 68 1010.8
20260904233503 31 213 0.0 3.2 0.00 0.00 0.00 68 1010.7
20260904233003 32 217 0.0 3.2 0.00 0.00 0.00 66 1010.9
20260904232503 32 225 0.0 3.2 0.00 0.00 0.00 66 1010.8
20260904232003 32 235 1.6 3.2 0.00 0.00 0.00 65 1010.6
20260904231524 33 238 1.6 3.2 0.00 0.00 0.00 63 1010.8
20260904231003 33 242 1.6 3.2 0.00 0.00 0.00 61 1010.8
20260904230503 34 246 0.0 3.2 0.00 0.00 0.00 60 1010.9
20260904230003 34 270 1.6 3.2 0.00 0.00 0.00 59 1011.0
20260904225503 34 285 1.6 4.8 0.00 0.00 0.00 59 1011.2
20260904225024 34 280 1.6 4.8 0.00 0.00 0.00 56 1011.2
20260904224503 35 287 1.6 4.8 0.00 0.00 0.00 57 1011.4
20260904224003 35 295 3.2 4.8 0.00 0.00 0.00 57 1011.4
20260904223503 35 293 3.2 8.0 0.00 0.00 0.00 57 1011.4
20260904223024 35 297 3.2 8.0 0.00 0.00 0.00 58 1011.6
20260904222503 35 299 3.2 8.0 0.00 0.00 0.00 59 1011.7
20260904222003 35 296 3.2 8.0 0.00 0.00 0.00 55 1011.7
20260904221503 35 292 3.2 6.4 0.00 0.00 0.00 56 1011.7
20260904221024 35 291 3.2 4.8 0.00 0.00 0.00 57 1011.8
20260904220503 35 290 3.2 6.4 0.00 0.00 0.00 56 1011.8
20260904220003 35 295 3.2 6.4 0.00 0.00 0.00 55 1011.8
20260904215503 35 297 4.8 6.4 0.00 0.00 0.00 53 1011.9
20260904215003 35 294 3.2 6.4 0.00 0.00 0.00 55 1011.8
20260904214524 35 292 3.2 6.4 0.00 0.00 0.00 56 1011.8
20260904214024 35 291 4.8 9.7 0.00 0.00 0.00 55 1011.6
20260904213503 35 291 4.8 9.7 0.00 0.00 0.00 55 1011.6
20260904213003 35 298 3.2 8.0 0.00 0.00 0.00 57 1011.6
20260904212503 35 301 3.2 8.0 0.00 0.00 0.00 54 1011.7
20260904212003 35 294 4.8 8.0 0.00 0.00 0.00 54 1011.6
20260904211503 35 296 4.8 9.7 0.00 0.00 0.00 56 1011.6
20260904211003 35 303 4.8 9.7 0.00 0.00 0.00 55 1011.6
20260904210503 35 297 4.8 8.0 0.00 0.00 0.00 56 1011.6
20260904210003 35 292 4.8 8.0 0.00 0.00 0.00 54 1011.6
20260904205503 35 296 3.2 8.0 0.00 0.00 0.00 55 1011.7
20260904205003 35 298 4.8 8.0 0.00 0.00 0.00 53 1011.7
20260904204503 36 300 4.8 8.0 0.00 0.00 0.00 55 1011.7
20260904204003 36 301 4.8 9.7 0.00 0.00 0.00 49 1011.7
20260904203503 36 300 4.8 9.7 0.00 0.00 0.00 49 1011.6
20260904203024 36 293 4.8 9.7 0.00 0.00 0.00 51 1011.6
20260904202503 36 275 6.4 11.3 0.00 0.00 0.00 52 1011.9
20260904202003 36 269 4.8 11.3 0.00 0.00 0.00 51 1012.0
20260904201503 36 282 4.8 9.7 0.00 0.00 0.00 47 1011.9
20260904201024 36 280 4.8 11.3 0.00 0.00 0.00 54 1012.0
20260904200503 36 272 4.8 11.3 0.00 0.00 0.00 50 1011.9
20260904200003 36 277 4.8 11.3 0.00 0.00 0.00 51 1012.0
20260904195503 36 291 4.8 11.3 0.00 0.00 0.00 55 1012.2
20260904195003 36 299 4.8 9.7 0.00 0.00 0.00 53 1012.3
20260904194503 36 282 6.4 17.7 0.00 0.00 0.00 50 1012.3
20260904194003 36 271 6.4 17.7 0.00 0.00 0.00 51 1012.5
20260904193503 36 264 4.8 14.5 0.00 0.00 0.00 53 1012.6
20260904193003 36 267 6.4 16.1 0.00 0.00 0.00 49 1012.7
20260904192503 36 274 4.8 16.1 0.00 0.00 0.00 49 1012.7
20260904192024 36 286 4.8 12.9 0.00 0.00 0.00 51 1012.7
20260904191503 36 280 4.8 12.9 0.00 0.00 0.00 55 1012.9
20260904191003 36 282 4.8 9.7 0.00 0.00 0.00 51 1012.9
20260904190524 36 272 6.4 16.1 0.00 0.00 0.00 53 1012.9
20260904190024 36 268 8.0 16.1 0.00 0.00 0.00 52 1013.0
20260904185503 36 277 8.0 16.1 0.00 0.00 0.00 51 1012.9
20260904185024 35 278 6.4 16.1 0.00 0.00 0.00 51 1012.9
20260904184503 35 276 6.4 14.5 0.00 0.00 0.00 56 1013.0
20260904184003 36 277 6.4 16.1 0.00 0.00 0.00 55 1013.1
20260904183524 36 284 6.4 16.1 0.00 0.00 0.00 52 1013.1
20260904183003 35 300 6.4 11.3 0.00 0.00 0.00 56 1013.2
20260904182503 35 298 6.4 12.9 0.00 0.00 0.00 53 1013.2
20260904182003 36 283 6.4 14.5 0.00 0.00 0.00 55 1013.2
20260904181503 35 288 6.4 14.5 0.00 0.00 0.00 55 1013.2
20260904181003 35 297 6.4 12.9 0.00 0.00 0.00 56 1013.3
20260904180524 35 285 6.4 16.1 0.00 0.00 0.00 57 1013.2
20260904180003 36 271 6.4 16.1 0.00 0.00 0.00 55 1013.3
20260904175524 35 285 8.0 12.9 0.00 0.00 0.00 54 1013.4